| time (UTC) | temp F | wind direction | speed MPH | gust MPH | rain 1hr in | rain 24hr in | rain mn in | humidity % | barometer mb |
| 20260903151855 | 82 | 20 | 7.0 | 0.0 | 0.00 | 0.00 | 0.00 | 37 | 1016.0 |
| 20260903150355 | 82 | 20 | 7.0 | 0.0 | 0.00 | 0.00 | 0.00 | 37 | 1016.0 |
| 20260903144853 | 84 | 3.0 | 0.0 | 0.00 | 0.00 | 0.00 | 35 | 1016.0 | |
| 20260903143354 | 84 | 3.0 | 0.0 | 0.00 | 0.00 | 0.00 | 35 | 1016.0 | |
| 20260903141854 | 84 | 3.0 | 0.0 | 0.00 | 0.00 | 0.00 | 35 | 1016.0 | |
| 20260903140354 | 84 | 3.0 | 0.0 | 0.00 | 0.00 | 0.00 | 35 | 1016.0 | |
| 20260903134854 | 0 | 0.0 | 0.0 | 0.00 | 0.00 | 0.00 | |||
| 20260903133353 | 0 | 0.0 | 0.0 | 0.00 | 0.00 | 0.00 | |||
| 20260903131854 | 0 | 0.0 | 0.0 | 0.00 | 0.00 | 0.00 | |||
| 20260903130355 | 0 | 0.0 | 0.0 | 0.00 | 0.00 | 0.00 | |||
| 20260903124854 | 84 | 40 | 14.0 | 0.0 | 0.00 | 0.00 | 0.00 | 40 | 1017.0 |
| 20260903123405 | 84 | 40 | 14.0 | 0.0 | 0.00 | 0.00 | 0.00 | 40 | 1017.0 |
| 20260903121853 | 84 | 40 | 14.0 | 0.0 | 0.00 | 0.00 | 0.00 | 40 | 1017.0 |
| 20260903120354 | 84 | 40 | 14.0 | 0.0 | 0.00 | 0.00 | 0.00 | 40 | 1017.0 |
| 20260903114855 | 82 | 30 | 16.0 | 0.0 | 0.00 | 0.00 | 0.00 | 42 | 1017.0 |
| 20260903113353 | 82 | 30 | 16.0 | 0.0 | 0.00 | 0.00 | 0.00 | 42 | 1017.0 |
| 20260903111855 | 82 | 30 | 16.0 | 0.0 | 0.00 | 0.00 | 0.00 | 42 | 1017.0 |
| 20260903110354 | 82 | 30 | 16.0 | 0.0 | 0.00 | 0.00 | 0.00 | 42 | 1017.0 |
| 20260903104853 | 81 | 20 | 16.0 | 0.0 | 0.00 | 0.00 | 0.00 | 48 | 1018.0 |
| 20260903103354 | 81 | 20 | 16.0 | 0.0 | 0.00 | 0.00 | 0.00 | 48 | 1018.0 |
| 20260903101854 | 81 | 20 | 16.0 | 0.0 | 0.00 | 0.00 | 0.00 | 48 | 1018.0 |
| 20260903100354 | 0 | 0.0 | 0.0 | 0.00 | 0.00 | 0.00 | |||
| 20260903094853 | 81 | 20 | 18.0 | 0.0 | 0.00 | 0.00 | 0.00 | 48 | 1018.0 |
| 20260903093354 | 81 | 20 | 18.0 | 0.0 | 0.00 | 0.00 | 0.00 | 48 | 1018.0 |
| 20260903091911 | 81 | 20 | 18.0 | 0.0 | 0.00 | 0.00 | 0.00 | 48 | 1018.0 |
| 20260903090410 | 0 | 0.0 | 0.0 | 0.00 | 0.00 | 0.00 | |||
| 20260903084854 | 0 | 0.0 | 0.0 | 0.00 | 0.00 | 0.00 | |||
| 20260903083354 | 0 | 0.0 | 0.0 | 0.00 | 0.00 | 0.00 | |||
| 20260903081854 | 0 | 0.0 | 0.0 | 0.00 | 0.00 | 0.00 | |||
| 20260903074852 | 75 | 10 | 18.0 | 0.0 | 0.00 | 0.00 | 0.00 | 57 | 1018.0 |
| 20260903073353 | 75 | 10 | 18.0 | 0.0 | 0.00 | 0.00 | 0.00 | 57 | 1018.0 |
| 20260903071853 | 0 | 0.0 | 0.0 | 0.00 | 0.00 | 0.00 | |||
| 20260903070354 | 0 | 0.0 | 0.0 | 0.00 | 0.00 | 0.00 | |||
| 20260903064854 | 70 | 30 | 11.0 | 0.0 | 0.00 | 0.00 | 0.00 | 73 | 1018.0 |
| 20260903063354 | 70 | 30 | 11.0 | 0.0 | 0.00 | 0.00 | 0.00 | 73 | 1018.0 |
| 20260903061854 | 70 | 30 | 11.0 | 0.0 | 0.00 | 0.00 | 0.00 | 73 | 1018.0 |
| 20260903060358 | 0 | 0.0 | 0.0 | 0.00 | 0.00 | 0.00 | |||
| 20260903054859 | 64 | 30 | 7.0 | 0.0 | 0.00 | 0.00 | 0.00 | 88 | 1018.0 |
| 20260903053354 | 64 | 30 | 7.0 | 0.0 | 0.00 | 0.00 | 0.00 | 88 | 1018.0 |
| 20260903051855 | 64 | 30 | 7.0 | 0.0 | 0.00 | 0.00 | 0.00 | 88 | 1018.0 |
| 20260903050355 | 64 | 30 | 7.0 | 0.0 | 0.00 | 0.00 | 0.00 | 88 | 1018.0 |
| 20260903044853 | 63 | 350 | 9.0 | 0.0 | 0.00 | 0.00 | 0.00 | 88 | 1018.0 |
| 20260903043353 | 63 | 350 | 9.0 | 0.0 | 0.00 | 0.00 | 0.00 | 88 | 1018.0 |
| 20260903041853 | 63 | 350 | 9.0 | 0.0 | 0.00 | 0.00 | 0.00 | 88 | 1018.0 |
| 20260903040354 | 63 | 350 | 9.0 | 0.0 | 0.00 | 0.00 | 0.00 | 88 | 1018.0 |
| 20260903034854 | 61 | 300 | 7.0 | 0.0 | 0.00 | 0.00 | 0.00 | 100 | 1018.0 |
| 20260903033354 | 61 | 300 | 7.0 | 0.0 | 0.00 | 0.00 | 0.00 | 100 | 1018.0 |
| 20260903031854 | 61 | 300 | 7.0 | 0.0 | 0.00 | 0.00 | 0.00 | 100 | 1018.0 |
| 20260903030508 | 0 | 0.0 | 0.0 | 0.00 | 0.00 | 0.00 | |||
| 20260903025007 | 0 | 0.0 | 0.0 | 0.00 | 0.00 | 0.00 | |||
| 20260903023441 | 0 | 0.0 | 0.0 | 0.00 | 0.00 | 0.00 | |||
| 20260903021853 | 0 | 0.0 | 0.0 | 0.00 | 0.00 | 0.00 | |||
| 20260903020514 | 0 | 0.0 | 0.0 | 0.00 | 0.00 | 0.00 | |||
| 20260903014854 | 0 | 0.0 | 0.0 | 0.00 | 0.00 | 0.00 | |||
| 20260903013353 | 0 | 0.0 | 0.0 | 0.00 | 0.00 | 0.00 | |||
| 20260903011853 | 0 | 0.0 | 0.0 | 0.00 | 0.00 | 0.00 | |||
| 20260903010354 | 0 | 0.0 | 0.0 | 0.00 | 0.00 | 0.00 | |||
| 20260903004854 | 0 | 0.0 | 0.0 | 0.00 | 0.00 | 0.00 | |||
| 20260903003354 | 0 | 0.0 | 0.0 | 0.00 | 0.00 | 0.00 | |||
| 20260903001854 | 0 | 0.0 | 0.0 | 0.00 | 0.00 | 0.00 | |||
| 20260903000355 | 0 | 0.0 | 0.0 | 0.00 | 0.00 | 0.00 | |||
| 20260902234853 | 0 | 0.0 | 0.0 | 0.00 | 0.00 | 0.00 | |||
| 20260902233354 | 0 | 0.0 | 0.0 | 0.00 | 0.00 | 0.00 | |||
| 20260902231854 | 0 | 0.0 | 0.0 | 0.00 | 0.00 | 0.00 | |||
| 20260902230353 | 0 | 0.0 | 0.0 | 0.00 | 0.00 | 0.00 | |||
| 20260902224853 | 70 | 20 | 11.0 | 0.0 | 0.00 | 0.00 | 0.00 | 73 | 1018.0 |
| 20260902223353 | 70 | 20 | 11.0 | 0.0 | 0.00 | 0.00 | 0.00 | 73 | 1018.0 |
| 20260902221853 | 70 | 20 | 11.0 | 0.0 | 0.00 | 0.00 | 0.00 | 73 | 1018.0 |
| 20260902220353 | 70 | 20 | 11.0 | 0.0 | 0.00 | 0.00 | 0.00 | 73 | 1018.0 |
| 20260902214854 | 72 | 30 | 11.0 | 0.0 | 0.00 | 0.00 | 0.00 | 69 | 1018.0 |
| 20260902213353 | 72 | 30 | 11.0 | 0.0 | 0.00 | 0.00 | 0.00 | 69 | 1018.0 |
| 20260902211851 | 72 | 30 | 11.0 | 0.0 | 0.00 | 0.00 | 0.00 | 69 | 1018.0 |
| 20260902210354 | 0 | 0.0 | 0.0 | 0.00 | 0.00 | 0.00 | |||
| 20260902204853 | 72 | 30 | 11.0 | 0.0 | 0.00 | 0.00 | 0.00 | 69 | 1018.0 |
| 20260902203354 | 72 | 30 | 11.0 | 0.0 | 0.00 | 0.00 | 0.00 | 69 | 1018.0 |
| 20260902201854 | 72 | 30 | 11.0 | 0.0 | 0.00 | 0.00 | 0.00 | 69 | 1018.0 |
| 20260902200409 | 72 | 30 | 11.0 | 0.0 | 0.00 | 0.00 | 0.00 | 69 | 1018.0 |
| 20260902194853 | 73 | 320 | 7.0 | 0.0 | 0.00 | 0.00 | 0.00 | 65 | 1018.0 |
| 20260902193353 | 73 | 320 | 7.0 | 0.0 | 0.00 | 0.00 | 0.00 | 65 | 1018.0 |
| 20260902191853 | 73 | 320 | 7.0 | 0.0 | 0.00 | 0.00 | 0.00 | 65 | 1018.0 |
| 20260902190354 | 73 | 320 | 7.0 | 0.0 | 0.00 | 0.00 | 0.00 | 65 | 1018.0 |
| 20260902184854 | 73 | 310 | 9.0 | 0.0 | 0.00 | 0.00 | 0.00 | 65 | 1018.0 |
| 20260902183353 | 73 | 310 | 9.0 | 0.0 | 0.00 | 0.00 | 0.00 | 65 | 1018.0 |
| 20260902181854 | 73 | 310 | 9.0 | 0.0 | 0.00 | 0.00 | 0.00 | 65 | 1018.0 |
| 20260902180353 | 73 | 310 | 9.0 | 0.0 | 0.00 | 0.00 | 0.00 | 65 | 1018.0 |
| 20260902174854 | 75 | 340 | 9.0 | 0.0 | 0.00 | 0.00 | 0.00 | 54 | 1017.0 |
| 20260902173353 | 75 | 340 | 9.0 | 0.0 | 0.00 | 0.00 | 0.00 | 54 | 1017.0 |
| 20260902171854 | 75 | 340 | 9.0 | 0.0 | 0.00 | 0.00 | 0.00 | 54 | 1017.0 |
| 20260902170354 | 75 | 340 | 9.0 | 0.0 | 0.00 | 0.00 | 0.00 | 54 | 1017.0 |
| 20260902165014 | 0 | 0.0 | 0.0 | 0.00 | 0.00 | 0.00 | |||
| 20260902163353 | 79 | 40 | 7.0 | 0.0 | 0.00 | 0.00 | 0.00 | 48 | 1017.0 |
| 20260902161854 | 79 | 40 | 7.0 | 0.0 | 0.00 | 0.00 | 0.00 | 48 | 1017.0 |
| 20260902160404 | 79 | 40 | 7.0 | 0.0 | 0.00 | 0.00 | 0.00 | 48 | 1017.0 |
| 20260902154854 | 82 | 3.0 | 0.0 | 0.00 | 0.00 | 0.00 | 40 | 1017.0 | |
| 20260902153353 | 82 | 3.0 | 0.0 | 0.00 | 0.00 | 0.00 | 40 | 1017.0 |